Wahpeton, MN

4:16 PM CST on November 21, 2019 (GMT -0600)
Stern

Weather History for KBWP - September, 2019

Change the Weather History Date:

Friday, September 13, 2019

  Actual Average (KFFM) Record (KFFM)
Temperature  
Mean Temperature 53 °F -  
Max Temperature 60 °F 69 °F 90 °F (1952)
Min Temperature 46 °F 47 °F 32 °F (1975)
Degree Days  
Heating Degree Days 12    
Growing Degree Days 3 (Base 50)    
Moisture  
Dew Point 46 °F    
Average Humidity 80    
Maximum Humidity 94    
Minimum Humidity 59    
Precipitation  
Precipitation 0.00 in - - ()
Sea Level Pressure  
Sea Level Pressure 29.95 in    
Wind  
Wind Speed 12 mph ()    
Max Wind Speed 20 mph    
Max Gust Speed 26 mph    
Visibility 9.5 miles    
Events      
Averages and records for this station are not official NWS values.
T = Trace of Precipitation, MM = Missing Value Source: Averaged Metar Reports

Daily Weather History Graph

Daily Weather History Graph

Search for Another Location

Airport or City:

Astronomy

Sep. 13, 2019 Rise Set
Actual Time 7:01 AM CDT 7:42 PM CDT
Civil Twilight 6:31 AM CDT 8:12 PM CDT
Nautical Twilight 5:55 AM CDT 8:48 PM CDT
Astronomical Twilight 5:17 AM CDT 9:25 PM CDT
Moon 8:00 PM CDT (9/13) 6:13 AM CDT (9/13)
Length of Visible Light 13h 40m
Length of Day
12h 40m
Full, 100% of the Moon is Illuminated
Sep 13
Full
Sep 13
Full
Sep 21
Last Quarter
Sep 28
New
Oct 5
First Quarter

Hourly Weather History & Observations

Time (CDT) Temp. Windchill Dew Point Humidity Pressure Visibility Wind Dir Wind Speed Gust Speed Precip Events Conditions
12:15 AM 53.6 °F - 50.0 °F 88% 29.81 in 10.0 mi WNW 10.4 mph - N/A   Unknown
12:35 AM 53.6 °F - 50.0 °F 88% 29.81 in 5.0 mi WNW 12.7 mph - N/A   Unknown
1:15 AM 51.8 °F - 50.0 °F 94% 29.82 in 10.0 mi WNW 15.0 mph - N/A   Unknown
1:35 AM 51.8 °F - 50.0 °F 94% 29.82 in 10.0 mi WNW 11.5 mph - N/A   Unknown
1:55 AM 51.8 °F - 48.2 °F 88% 29.83 in 7.0 mi WNW 12.7 mph 19.6 mph N/A   Unknown
2:15 AM 51.8 °F - 48.2 °F 88% 29.83 in 10.0 mi WNW 11.5 mph - N/A   Unknown
2:35 AM 51.8 °F - 48.2 °F 88% 29.84 in 5.0 mi WNW 15.0 mph - N/A   Unknown
2:55 AM 50.0 °F - 46.4 °F 87% 29.84 in 7.0 mi WNW 15.0 mph 18.4 mph N/A   Unknown
3:15 AM 50.0 °F - 46.4 °F 87% 29.84 in 10.0 mi West 13.8 mph - N/A   Unknown
3:35 AM 50.0 °F - 46.4 °F 87% 29.85 in 10.0 mi WNW 15.0 mph 20.7 mph N/A   Unknown
3:55 AM 50.0 °F - 46.4 °F 87% 29.85 in 10.0 mi West 15.0 mph 20.7 mph N/A   Unknown
4:15 AM 50.0 °F - 46.4 °F 87% 29.85 in 10.0 mi West 15.0 mph 20.7 mph N/A   Unknown
4:35 AM 50.0 °F - 46.4 °F 87% 29.86 in 10.0 mi West 17.3 mph - N/A   Unknown
4:55 AM 50.0 °F - 46.4 °F 87% 29.86 in 10.0 mi WNW 12.7 mph 21.9 mph N/A   Unknown
5:15 AM 50.0 °F - 46.4 °F 87% 29.86 in 10.0 mi West 16.1 mph - N/A   Unknown
5:35 AM 50.0 °F - 44.6 °F 82% 29.87 in 10.0 mi WNW 17.3 mph 23.0 mph N/A   Unknown
5:55 AM 50.0 °F - 46.4 °F 87% 29.87 in 10.0 mi West 13.8 mph - N/A   Unknown
6:15 AM 50.0 °F - 44.6 °F 82% 29.88 in 10.0 mi West 15.0 mph - N/A   Unknown
6:35 AM 50.0 °F - 44.6 °F 82% 29.88 in 10.0 mi West 16.1 mph 20.7 mph N/A   Unknown
6:55 AM 50.0 °F - 44.6 °F 82% 29.90 in 10.0 mi WNW 17.3 mph 23.0 mph N/A   Unknown
7:15 AM 50.0 °F - 44.6 °F 82% 29.90 in 10.0 mi WNW 16.1 mph 21.9 mph N/A   Overcast
7:35 AM 50.0 °F - 44.6 °F 82% 29.91 in 10.0 mi WNW 17.3 mph 23.0 mph N/A   Overcast
7:55 AM 50.0 °F - 44.6 °F 82% 29.91 in 10.0 mi WNW 15.0 mph 21.9 mph N/A   Unknown
8:15 AM 50.0 °F - 44.6 °F 82% 29.92 in 10.0 mi West 19.6 mph 26.5 mph N/A   Unknown
8:35 AM 50.0 °F - 44.6 °F 82% 29.92 in 10.0 mi West 13.8 mph 19.6 mph N/A   Unknown
8:55 AM 50.0 °F - 46.4 °F 87% 29.94 in 5.0 mi West 17.3 mph 20.7 mph N/A   Unknown
9:15 AM 50.0 °F - 46.4 °F 87% 29.94 in 10.0 mi WNW 15.0 mph - N/A   Unknown
9:35 AM 50.0 °F - 46.4 °F 87% 29.95 in 4.0 mi West 12.7 mph - N/A   Unknown
9:55 AM 50.0 °F - 46.4 °F 87% 29.95 in 10.0 mi West 12.7 mph - N/A   Unknown
10:15 AM 51.8 °F - 46.4 °F 82% 29.96 in 10.0 mi West 15.0 mph 19.6 mph N/A   Unknown
10:35 AM 51.8 °F - 46.4 °F 82% 29.96 in 10.0 mi West 15.0 mph 21.9 mph N/A   Overcast
10:55 AM 51.8 °F - 46.4 °F 82% 29.96 in 10.0 mi West 16.1 mph - N/A   Overcast
11:15 AM 51.8 °F - 46.4 °F 82% 29.97 in 5.0 mi West 17.3 mph 20.7 mph N/A   Overcast
11:35 AM 51.8 °F - 46.4 °F 82% 29.98 in 7.0 mi WNW 16.1 mph 23.0 mph N/A   Overcast
11:55 AM 51.8 °F - 48.2 °F 88% 29.99 in 10.0 mi West 11.5 mph 17.3 mph N/A   Overcast
12:15 PM 51.8 °F - 46.4 °F 82% 29.99 in 10.0 mi West 15.0 mph - N/A   Overcast
12:35 PM 53.6 °F - 46.4 °F 77% 29.99 in 10.0 mi WNW 12.7 mph - N/A   Unknown
12:55 PM 53.6 °F - 46.4 °F 77% 29.99 in 10.0 mi West 11.5 mph 19.6 mph N/A   Unknown
1:15 PM 55.4 °F - 46.4 °F 72% 29.99 in 10.0 mi WNW 15.0 mph - N/A   Overcast
1:35 PM 55.4 °F - 46.4 °F 72% 29.99 in 10.0 mi WNW 17.3 mph 23.0 mph N/A   Overcast
1:55 PM 57.2 °F - 46.4 °F 67% 29.99 in 10.0 mi WNW 16.1 mph 25.3 mph N/A   Unknown
2:15 PM 59.0 °F - 46.4 °F 63% 30.00 in 10.0 mi West 17.3 mph 21.9 mph N/A   Overcast
2:35 PM 59.0 °F - 46.4 °F 63% 30.00 in 10.0 mi WNW 13.8 mph - N/A   Unknown
2:55 PM 59.0 °F - 46.4 °F 63% 30.00 in 10.0 mi West 15.0 mph - N/A   Unknown
3:15 PM 59.0 °F - 46.4 °F 63% 30.00 in 10.0 mi WNW 12.7 mph 19.6 mph N/A   Unknown
3:35 PM 59.0 °F - 46.4 °F 63% 30.01 in 10.0 mi WNW 13.8 mph 20.7 mph N/A   Overcast
3:55 PM 59.0 °F - 46.4 °F 63% 30.01 in 10.0 mi WNW 10.4 mph - N/A   Unknown
4:15 PM 60.8 °F - 46.4 °F 59% 30.00 in 10.0 mi West 11.5 mph - N/A   Unknown
4:35 PM 59.0 °F - 46.4 °F 63% 30.01 in 10.0 mi West 15.0 mph - N/A   Unknown
4:55 PM 59.0 °F - 46.4 °F 63% 30.01 in 10.0 mi West 13.8 mph 17.3 mph N/A   Unknown
5:15 PM 59.0 °F - 46.4 °F 63% 30.01 in 10.0 mi West 15.0 mph - N/A   Overcast
5:35 PM 59.0 °F - 46.4 °F 63% 30.01 in 10.0 mi West 11.5 mph - N/A   Unknown
5:55 PM 59.0 °F - 48.2 °F 67% 30.01 in 10.0 mi West 12.7 mph - N/A   Unknown
6:15 PM 59.0 °F - 46.4 °F 63% 30.01 in 10.0 mi West 12.7 mph - N/A   Unknown
6:35 PM 57.2 °F - 48.2 °F 72% 30.01 in 10.0 mi West 8.1 mph - N/A   Unknown
6:55 PM 57.2 °F - 48.2 °F 72% 30.01 in 10.0 mi West 10.4 mph - N/A   Unknown
7:15 PM 55.4 °F - 46.4 °F 72% 30.01 in 10.0 mi West 8.1 mph - N/A   Unknown
7:55 PM 51.8 °F - 46.4 °F 82% 30.02 in 10.0 mi WSW 5.8 mph - N/A   Unknown
8:15 PM 51.8 °F - 46.4 °F 82% 30.02 in 10.0 mi WSW 6.9 mph - N/A   Unknown
8:35 PM 51.8 °F - 46.4 °F 82% 30.02 in 10.0 mi SW 6.9 mph - N/A   Clear
8:55 PM 51.8 °F - 46.4 °F 82% 30.03 in 10.0 mi SW 5.8 mph - N/A   Clear
9:15 PM 50.0 °F - 46.4 °F 87% 30.03 in 10.0 mi SSW 5.8 mph - N/A   Clear
9:35 PM 48.2 °F - 44.6 °F 87% 30.03 in 10.0 mi SSW 6.9 mph - N/A   Clear
9:55 PM 50.0 °F - 44.6 °F 82% 30.04 in 10.0 mi SSW 6.9 mph - N/A   Clear
10:15 PM 48.2 °F - 44.6 °F 87% 30.04 in 10.0 mi South 6.9 mph - N/A   Clear
10:35 PM 48.2 °F - 44.6 °F 87% 30.04 in 10.0 mi South 6.9 mph - N/A   Clear
10:55 PM 48.2 °F - 44.6 °F 87% 30.04 in 10.0 mi South 6.9 mph - N/A   Clear
11:15 PM 46.4 °F 42.9 °F 44.6 °F 93% 30.04 in 10.0 mi South 6.9 mph - N/A   Clear
11:35 PM 46.4 °F 43.5 °F 44.6 °F 93% 30.04 in 10.0 mi SSW 5.8 mph - N/A   Clear
11:55 PM 46.4 °F 42.9 °F 44.6 °F 93% 30.04 in 10.0 mi South 6.9 mph - N/A   Clear